Vertical_Velocity
-0 -0 -1 -1 -0 -0 -0 -0 -0 -0 0 0 0 -0 -0 -0 -0 -0 0 0 0 0 0 0 0 0 0 -0 -0 -0 -0 -1 -1 -2 -2 -2 -2 -2 -2 -3 -3 -2 -2 -0 0 -0 -2 -2 -2 -1 -1 -1 0 1 2 1 1 0 -1 -2 -3 -4 -4 -5 -4 -3 -2 -2 -3 -3 -4 -5 -5 -5 -4 -3 -2 -1 -1 0 2 3 4 2 -0 -2 -3 -3 -2 -2 -2 -1 -0 0 0 -1 -1 -1 -1 -1 -1 -1 -1
0 0 -0 -0 -0 -0 -0 -0 -0 -0 0 0 0 0 0 0 -0 -0 0 0 0 0 0 0 0 0 -0 -0 -0 -0 -0 -1 -1 -1 -2 -2 -2 -2 -2 -2 -3 -3 -2 -1 -0 -1 -2 -2 -2 -2 -3 -3 -3 -2 -2 -1 -1 -0 -0 -0 -1 -1 -2 -3 -4 -3 -2 -2 -3 -3 -3 -4 -4 -5 -5 -5 -4 -3 -2 -1 -0 1 3 4 3 1 -1 -3 -3 -2 -2 -2 -1 -1 1 1 0 -1 -1 -1 -2 -2 -2
0 0 -0 -0 -0 -0 -0 -0 -0 -0 0 0 0 0 0 0 0 0 0 0 0 0 0 -0 -0 -0 -0 -0 -1 -0 -0 -0 -1 -1 -1 -1 -1 -2 -2 -2 -2 -2 -2 -1 -0 -0 -2 -2 -2 -1 -2 -3 -3 -4 -4 -4 -4 -3 -3 -2 -1 -1 -2 -2 -2 -2 -2 -2 -2 -3 -3 -3 -4 -4 -4 -5 -5 -5 -5 -4 -3 -2 -1 2 4 5 3 -0 -2 -3 -2 -2 -2 -2 -1 1 1 1 -1 -2 -2 -2 -2
-0 0 0 -0 -0 -0 -0 -0 -0 -0 -0 -0 0 0 0 0 0 0 0 0 0 0 -0 -0 -0 -0 -0 -0 -1 -1 -0 -0 -0 -0 -0 -0 -0 -1 -1 -1 -1 -1 -1 -1 0 0 -0 -1 -1 0 -0 -1 -2 -2 -4 -5 -5 -5 -5 -4 -3 -3 -4 -4 -3 -3 -3 -3 -3 -2 -2 -3 -3 -3 -3 -3 -4 -5 -6 -6 -6 -5 -4 -2 1 4 5 4 1 -1 -3 -2 -2 -1 -2 -1 1 2 1 -1 -2 -2 -3
-1 -0 -0 -0 -0 -0 -0 -0 -0 -0 -0 -0 -0 0 0 0 0 1 1 1 0 0 -0 -0 -0 -0 -0 -0 -0 -0 -0 -0 -0 -0 0 1 1 1 1 0 0 0 0 1 1 2 2 1 1 2 2 2 2 2 0 -1 -3 -4 -5 -5 -5 -5 -5 -5 -5 -5 -5 -5 -4 -4 -3 -3 -3 -3 -2 -2 -2 -3 -4 -6 -7 -7 -7 -6 -3 -0 3 5 5 3 -1 -2 -2 -1 -1 -2 -1 1 2 1 -0 -2 -3
-1 -1 -0 -0 -0 -0 -0 -1 -1 -0 -0 -0 -0 0 0 0 0 1 1 1 1 1 0 -0 -0 -0 0 0 -0 -0 -0 -0 -0 0 0 1 1 1 2 2 2 2 2 2 3 3 4 3 3 4 5 5 6 6 6 5 4 2 1 -0 -2 -3 -4 -4 -4 -5 -5 -6 -6 -6 -6 -6 -5 -4 -3 -2 -2 -2 -3 -4 -6 -7 -8 -8 -7 -5 -2 2 5 6 5 1 -1 -1 -1 -1 -2 -1 1 2 1 -0 -2
-1 -1 -1 -1 -1 -1 -0 -1 -0 -0 -0 -0 -0 -0 0 0 0 0 1 1 1 1 1 0 0 0 0 0 0 0 0 0 0 0 0 1 1 1 2 2 2 2 3 3 3 4 4 4 4 4 5 6 6 7 7 8 8 7 7 6 4 3 1 -0 -1 -1 -2 -3 -4 -5 -6 -6 -7 -6 -5 -4 -3 -3 -3 -4 -5 -5 -6 -7 -7 -7 -6 -3 1 5 7 5 3 0 -1 -1 -2 -2 -1 1 2 2 0
-1 -1 -1 -1 -1 -1 -1 -1 -0 -0 -0 -0 -0 -0 -0 -0 -0 -0 0 0 1 1 1 0 0 0 0 1 1 1 1 1 1 0 0 0 0 0 1 1 1 2 2 2 3 3 3 4 4 4 4 5 5 5 6 6 6 7 7 7 7 6 5 4 3 2 2 1 0 -1 -2 -3 -5 -6 -6 -6 -5 -5 -5 -5 -5 -5 -4 -4 -5 -6 -7 -7 -5 -1 4 7 6 4 1 -0 -1 -2 -2 -1 1 2 3
-2 -2 -1 -1 -1 -1 -1 -1 -1 -0 -0 -0 -0 -1 -1 -1 -1 -1 -1 -0 0 0 0 0 0 0 0 0 0 1 1 1 1 0 0 0 -0 -0 -0 -0 0 0 1 1 2 2 2 3 3 3 3 3 3 3 4 4 4 4 5 5 6 6 6 5 4 4 4 4 3 2 2 1 -0 -1 -3 -4 -5 -6 -6 -6 -6 -6 -5 -5 -4 -4 -5 -7 -7 -7 -3 3 6 7 5 2 0 -0 -2 -2 -1 1 3
-2 -2 -2 -2 -1 -1 -1 -1 -1 -1 -0 -0 -1 -1 -1 -1 -1 -1 -1 -1 -1 -1 -1 -1 -1 -0 -0 -0 -0 0 0 0 0 0 0 -0 -0 -0 -0 -1 -1 -1 -0 -0 0 0 1 1 1 1 1 1 1 1 2 1 1 1 2 2 3 3 4 4 4 4 5 4 4 4 4 4 3 2 2 0 -1 -2 -3 -4 -5 -6 -6 -7 -6 -5 -4 -5 -6 -7 -8 -4 1 5 7 5 3 1 0 -1 -2 -1 1
-2 -2 -2 -2 -2 -2 -1 -2 -2 -1 -1 -1 -1 -1 -1 -1 -1 -1 -1 -1 -1 -1 -1 -1 -1 -1 -1 -1 -1 -1 -1 -1 -0 -0 -0 -0 -1 -1 -1 -1 -1 -1 -1 -1 -1 -1 -1 -0 -1 -1 -0 -1 -1 -0 -0 -1 -1 -1 -0 0 0 0 1 1 2 2 3 4 4 4 4 5 5 5 5 4 3 2 2 0 -1 -3 -5 -6 -7 -7 -6 -5 -5 -6 -7 -7 -5 -1 4 5 5 3 2 0 -1 -1 -0
-2 -2 -2 -2 -2 -2 -2 -2 -2 -2 -2 -1 -1 -1 -1 -1 -1 -1 -1 -1 -1 -1 -1 -2 -2 -2 -2 -2 -2 -2 -2 -1 -1 -1 -1 -1 -1 -1 -1 -1 -1 -2 -2 -2 -2 -2 -2 -1 -2 -2 -1 -1 -1 -1 -0 -0 -1 -1 -0 -0 -0 -0 -0 -0 -0 0 1 2 3 3 4 4 5 5 5 6 6 6 6 5 4 2 0 -3 -5 -7 -8 -7 -6 -6 -6 -7 -7 -6 -3 3 5 5 3 2 0 -1 -1
-1 -1 -1 -1 -1 -1 -1 -2 -2 -2 -2 -2 -2 -2 -2 -1 -1 -1 -1 -1 -1 -1 -1 -1 -2 -2 -3 -3 -3 -3 -3 -3 -2 -2 -2 -2 -2 -3 -3 -2 -3 -3 -3 -2 -2 -2 -1 -1 -1 -1 -0 -0 0 0 0 1 0 -0 0 -0 -0 -0 -0 -1 -1 -1 -1 -1 0 1 2 3 3 4 4 5 6 7 8 8 8 7 6 4 1 -2 -5 -7 -7 -7 -6 -6 -7 -7 -7 -3 2 5 5 3 2 0 -1
-1 -1 -1 -1 -1 -1 -1 -1 -2 -2 -2 -2 -2 -2 -2 -2 -1 -1 -1 -1 -1 -1 -1 -1 -1 -1 -2 -3 -3 -4 -4 -4 -3 -3 -3 -3 -3 -4 -4 -3 -3 -3 -3 -2 -2 -1 -1 -0 0 0 1 1 1 2 1 1 1 1 1 0 -0 -0 -1 -1 -1 -2 -2 -2 -2 -1 -1 0 1 1 1 2 4 5 7 8 8 9 9 8 7 4 1 -2 -5 -7 -8 -7 -7 -7 -7 -7 -4 1 4 4 3 1 0
-1 -1 -1 -1 -1 -1 -1 -1 -1 -1 -1 -1 -1 -1 -1 -1 -1 -1 -1 -1 -1 -1 -0 -0 -1 -1 -1 -2 -3 -3 -4 -5 -5 -5 -4 -4 -4 -4 -4 -3 -3 -3 -2 -2 -1 -1 0 0 1 1 1 2 2 3 3 3 3 2 2 2 1 1 0 -0 -1 -2 -3 -3 -3 -3 -2 -2 -2 -2 -2 -1 0 2 3 5 6 7 8 8 9 8 7 5 1 -3 -6 -7 -8 -7 -6 -7 -7 -5 -0 3 3 2 2
-1 -1 -1 -1 -1 -1 -1 -1 -1 -1 -1 -1 -1 -1 -1 -1 -1 -1 -1 -1 -1 -1 -1 -1 -1 -1 -1 -1 -2 -3 -3 -4 -5 -5 -5 -4 -4 -4 -3 -3 -2 -2 -1 -1 -0 0 1 1 1 2 2 2 2 3 4 4 4 4 4 4 4 3 3 2 1 -0 -2 -3 -3 -4 -4 -4 -4 -4 -4 -4 -3 -2 -1 1 2 3 5 6 7 8 9 9 7 5 0 -4 -6 -7 -7 -7 -8 -8 -6 -1 2 3 3
-1 -1 -1 -1 -1 -1 -1 -1 -1 -1 -1 -1 -1 -1 -1 -1 -1 -1 -1 -1 -1 -2 -2 -1 -1 -1 -1 -1 -2 -2 -2 -3 -4 -4 -4 -4 -3 -3 -2 -2 -1 -1 0 0 0 1 1 1 1 2 2 2 2 2 3 3 3 4 4 4 4 4 4 4 3 3 1 0 -1 -2 -4 -5 -6 -6 -7 -6 -6 -5 -5 -4 -2 -1 1 2 4 5 7 8 9 9 7 3 -1 -5 -7 -8 -8 -8 -8 -6 -2 2 4
-0 -0 -0 -0 -0 -0 -0 -0 -0 -0 -1 -1 -1 -1 -1 -1 -1 -2 -2 -2 -2 -2 -2 -2 -2 -2 -2 -2 -1 -1 -1 -2 -2 -2 -2 -2 -2 -2 -1 -1 -0 0 0 1 1 1 1 1 1 1 2 1 1 2 2 2 2 2 2 2 2 3 3 3 3 3 3 2 2 0 -1 -3 -5 -7 -8 -8 -8 -8 -7 -7 -7 -5 -4 -2 -0 2 3 5 7 8 10 8 5 -0 -5 -7 -7 -8 -8 -9 -6 -2 3
-0 0 0 0 0 -0 0 0 0 -0 -0 -1 -1 -1 -1 -1 -2 -2 -2 -2 -2 -3 -3 -3 -3 -3 -2 -2 -2 -1 -1 -0 -0 -0 -1 -1 -1 -1 -0 -0 0 0 0 1 1 1 1 1 1 0 1 0 0 0 0 -0 -0 -0 -0 -1 -1 -1 -1 -0 -0 0 0 1 2 1 1 -1 -3 -5 -6 -7 -8 -9 -10 -10 -10 -9 -8 -6 -5 -3 -1 1 3 5 7 8 7 5 0 -4 -6 -7 -7 -8 -9 -7 -2
-0 -0 -0 0 0 0 0 0 -0 -0 -0 -1 -1 -1 -1 -1 -2 -2 -2 -3 -3 -3 -3 -3 -3 -3 -3 -2 -2 -1 -1 -0 0 0 1 0 0 0 -0 0 0 -0 -0 0 0 0 0 0 -0 -1 -1 -1 -1 -1 -2 -2 -3 -3 -3 -3 -3 -3 -4 -4 -4 -4 -4 -3 -2 -1 -1 -1 -2 -2 -4 -5 -7 -9 -10 -11 -11 -11 -11 -10 -9 -8 -6 -4 -2 0 2 4 5 6 5 1 -2 -5 -6 -7 -8 -8 -7
-1 -1 -1 -0 -0 -0 -0 -0 -0 -1 -1 -1 -1 -1 -2 -2 -2 -2 -2 -3 -3 -3 -3 -3 -3 -3 -3 -3 -2 -2 -1 -1 -0 -0 0 0 0 -0 -0 0 -0 -0 -1 -1 -1 -1 -1 -1 -1 -1 -2 -2 -2 -3 -3 -4 -5 -5 -5 -6 -6 -6 -6 -6 -7 -7 -7 -7 -6 -6 -5 -4 -3 -3 -2 -3 -5 -7 -9 -10 -11 -11 -12 -12 -12 -12 -11 -9 -7 -5 -3 -1 1 3 5 4 2 -2 -5 -6 -7 -8 -9
-1 -1 -1 -1 -1 -1 -1 -1 -1 -1 -1 -1 -1 -1 -2 -2 -2 -2 -3 -3 -3 -3 -4 -4 -3 -3 -3 -3 -3 -3 -3 -1 -1 -1 -1 -0 0 -0 -1 -0 -0 -0 -1 -2 -2 -2 -2 -2 -2 -2 -3 -3 -3 -4 -5 -6 -6 -7 -7 -8 -7 -7 -8 -8 -8 -9 -10 -10 -10 -9 -8 -8 -6 -5 -4 -4 -4 -5 -6 -8 -9 -11 -12 -13 -14 -14 -15 -14 -12 -10 -8 -6 -4 -1 1 3 3 0 -3 -5 -6 -7 -8
-0 -1 -1 -1 -1 -1 -1 -2 -2 -2 -2 -2 -2 -2 -2 -2 -2 -2 -3 -2 -3 -3 -3 -3 -3 -3 -3 -3 -3 -3 -3 -2 -1 -0 -1 -1 -1 -0 -0 -1 -1 -1 -1 -2 -3 -3 -3 -4 -4 -4 -4 -4 -5 -5 -6 -7 -8 -8 -9 -9 -9 -9 -9 -10 -10 -11 -12 -12 -11 -11 -10 -10 -9 -8 -7 -6 -5 -5 -5 -6 -8 -9 -10 -12 -13 -15 -16 -16 -15 -14 -12 -10 -8 -6 -3 -1 1 1 -1 -4 -6 -7 -7
-0 -0 -1 -1 -1 -1 -1 -2 -2 -2 -2 -2 -2 -2 -3 -2 -2 -2 -2 -2 -2 -2 -2 -3 -3 -3 -3 -2 -2 -2 -3 -3 -2 -1 0 -1 -1 -1 -0 -1 -1 -1 -2 -3 -3 -4 -5 -5 -5 -5 -6 -6 -7 -7 -8 -9 -9 -10 -10 -10 -10 -10 -11 -11 -11 -12 -12 -13 -12 -12 -11 -11 -11 -10 -9 -8 -8 -7 -6 -7 -7 -8 -9 -11 -13 -14 -15 -16 -16 -16 -14 -13 -11 -9 -7 -4 -2 -0 -0 -3 -5 -7 -7
-0 -0 -1 -1 -1 -1 -1 -1 -2 -2 -2 -2 -2 -2 -2 -2 -2 -2 -1 -1 -1 -1 -1 -1 -2 -2 -2 -2 -2 -2 -2 -3 -3 -3 -1 -0 -1 -2 -2 -2 -3 -3 -3 -4 -4 -5 -6 -6 -7 -7 -8 -8 -9 -9 -9 -10 -11 -11 -11 -11 -12 -12 -12 -12 -12 -13 -13 -13 -13 -13 -12 -12 -12 -11 -10 -10 -9 -9 -9 -8 -8 -8 -9 -10 -12 -13 -14 -15 -16 -16 -15 -14 -13 -11 -9 -7 -4 -2 -0 -2 -4 -7 -8
-0 -0 -1 -1 -1 -1 -1 -1 -1 -2 -2 -2 -2 -2 -2 -2 -2 -1 -1 -1 -1 -1 -1 -1 -1 -1 -1 -1 -2 -2 -2 -3 -3 -4 -4 -2 -1 -2 -3 -4 -4 -4 -4 -4 -5 -6 -6 -8 -9 -9 -10 -10 -11 -11 -11 -11 -11 -12 -12 -12 -13 -13 -13 -13 -13 -13 -13 -13 -13 -13 -13 -13 -12 -12 -11 -11 -10 -10 -10 -10 -10 -10 -10 -10 -11 -11 -12 -13 -14 -14 -14 -14 -14 -12 -11 -8 -6 -4 -2 -1 -3 -6 -8
-1 -1 -1 -1 -1 -1 -1 -1 -1 -1 -1 -1 -1 -1 -1 -2 -2 -1 -1 -1 -1 -0 -1 -1 -1 -1 -1 -1 -1 -1 -2 -2 -3 -4 -4 -4 -3 -3 -3 -5 -5 -5 -5 -5 -6 -6 -7 -8 -9 -11 -12 -12 -12 -12 -12 -12 -12 -12 -13 -13 -14 -14 -14 -14 -14 -13 -13 -13 -13 -13 -13 -13 -12 -12 -11 -12 -11 -11 -11 -11 -11 -11 -11 -10 -10 -10 -11 -11 -12 -12 -12 -13 -13 -12 -11 -9 -7 -5 -3 -1 -1 -3 -7
-1 -1 -1 -1 -1 -1 -1 -1 -1 -1 -1 -1 -1 -1 -1 -1 -2 -2 -1 -1 -1 -1 -1 -2 -2 -2 -2 -2 -1 -1 -1 -2 -3 -4 -4 -5 -5 -4 -3 -5 -5 -5 -6 -6 -6 -7 -8 -9 -9 -11 -12 -13 -13 -13 -13 -12 -12 -13 -13 -14 -15 -15 -15 -15 -15 -14 -14 -13 -12 -12 -12 -12 -12 -11 -11 -12 -12 -11 -11 -11 -11 -11 -11 -10 -9 -9 -9 -10 -10 -10 -10 -10 -10 -10 -10 -10 -8 -6 -3 -1 -0 -1 -3
-1 -1 -1 -1 -2 -2 -2 -1 -1 -1 -1 -1 -1 -1 -1 -0 -1 -2 -3 -2 -2 -1 -2 -2 -2 -3 -2 -3 -3 -2 -1 -1 -2 -4 -4 -5 -5 -5 -4 -5 -5 -6 -6 -7 -7 -7 -8 -10 -10 -11 -12 -13 -14 -14 -13 -13 -13 -14 -14 -15 -15 -15 -15 -15 -15 -15 -14 -13 -13 -12 -11 -11 -10 -10 -10 -11 -11 -12 -11 -11 -10 -10 -10 -9 -9 -9 -8 -8 -8 -8 -8 -8 -8 -8 -8 -8 -8 -7 -5 -3 -1 -0 -0
-2 -2 -1 -2 -2 -2 -2 -2 -2 -2 -2 -1 -1 -1 -2 -1 -0 -1 -2 -3 -3 -2 -2 -2 -3 -3 -3 -3 -3 -3 -3 -1 -1 -2 -4 -5 -5 -6 -6 -6 -6 -7 -7 -7 -8 -8 -8 -10 -11 -12 -12 -13 -13 -14 -14 -14 -14 -14 -15 -16 -16 -16 -16 -16 -16 -16 -15 -14 -13 -11 -10 -9 -9 -9 -9 -10 -11 -11 -11 -11 -10 -9 -9 -9 -9 -8 -7 -7 -6 -6 -5 -5 -6 -6 -6 -7 -7 -7 -6 -4 -2 -1 0
-2 -2 -2 -2 -2 -2 -2 -2 -2 -2 -2 -1 -1 -1 -2 -1 -1 -1 -1 -1 -2 -3 -3 -3 -3 -3 -3 -4 -3 -3 -3 -2 -1 -2 -3 -4 -6 -7 -6 -7 -7 -8 -8 -8 -9 -9 -9 -9 -10 -11 -12 -13 -14 -14 -14 -14 -14 -15 -15 -16 -17 -17 -17 -17 -17 -17 -16 -14 -13 -11 -9 -8 -8 -8 -8 -9 -9 -10 -11 -11 -10 -10 -9 -9 -8 -8 -7 -6 -5 -4 -4 -4 -5 -5 -5 -5 -4 -5 -5 -4 -3 -3 -2
-1 -2 -2 -2 -2 -2 -2 -2 -2 -3 -2 -2 -1 -2 -2 -1 -1 -1 -2 -1 -1 -2 -3 -3 -3 -4 -3 -4 -4 -4 -3 -2 -1 -2 -3 -3 -5 -7 -8 -7 -8 -8 -9 -9 -10 -10 -10 -11 -11 -12 -12 -13 -14 -15 -14 -15 -15 -15 -15 -15 -16 -17 -18 -18 -18 -17 -16 -15 -13 -11 -9 -8 -7 -7 -7 -7 -8 -9 -10 -10 -10 -10 -9 -8 -8 -7 -6 -6 -5 -5 -5 -5 -5 -4 -4 -3 -2 -1 -1 -1 -1 -0 1
-2 -2 -2 -2 -2 -2 -2 -2 -2 -2 -3 -2 -2 -2 -3 -2 -2 -1 -2 -2 -2 -2 -2 -3 -3 -3 -3 -4 -5 -5 -4 -3 -2 -2 -4 -4 -4 -6 -8 -8 -9 -9 -10 -10 -11 -12 -12 -11 -12 -12 -13 -13 -14 -14 -15 -15 -15 -15 -15 -15 -16 -17 -18 -18 -18 -17 -17 -15 -13 -11 -9 -8 -7 -7 -6 -6 -7 -8 -9 -10 -10 -10 -9 -8 -8 -7 -6 -5 -5 -5 -6 -5 -5 -4 -3 -2 -0 1 2 2 2 3 5
-2 -2 -2 -2 -2 -2 -2 -2 -2 -2 -2 -2 -2 -2 -3 -3 -3 -2 -2 -3 -3 -3 -3 -3 -3 -4 -3 -3 -4 -6 -5 -5 -3 -3 -3 -6 -6 -6 -7 -8 -9 -10 -11 -10 -10 -11 -13 -12 -12 -12 -12 -13 -13 -14 -15 -15 -16 -16 -16 -16 -16 -17 -18 -18 -18 -17 -16 -15 -13 -11 -10 -9 -8 -7 -7 -6 -6 -7 -8 -9 -10 -10 -10 -9 -8 -7 -6 -5 -5 -5 -6 -5 -4 -3 -2 -1 -0 0 1 1 1 2 3
-2 -2 -2 -2 -2 -2 -2 -2 -2 -2 -2 -2 -2 -2 -2 -3 -3 -3 -3 -3 -4 -4 -5 -4 -4 -5 -6 -5 -5 -6 -7 -6 -5 -4 -3 -6 -7 -8 -7 -9 -9 -9 -10 -11 -11 -11 -12 -12 -12 -12 -12 -12 -13 -14 -15 -15 -16 -17 -17 -16 -16 -16 -17 -17 -17 -16 -15 -14 -13 -12 -10 -9 -8 -8 -7 -6 -6 -6 -6 -8 -9 -10 -10 -9 -8 -8 -6 -6 -6 -6 -6 -5 -4 -3 -2 -1 -1 -0 1 1 2 2 3
-2 -2 -2 -2 -3 -3 -3 -2 -2 -2 -3 -3 -3 -3 -2 -3 -3 -4 -4 -4 -4 -5 -6 -6 -6 -6 -7 -7 -7 -7 -7 -6 -7 -7 -6 -5 -7 -8 -8 -9 -10 -10 -10 -11 -11 -12 -13 -13 -13 -13 -13 -13 -13 -13 -14 -15 -16 -17 -18 -17 -17 -16 -16 -16 -16 -15 -14 -13 -12 -11 -11 -10 -9 -8 -7 -7 -6 -5 -5 -6 -8 -9 -10 -9 -9 -8 -7 -6 -6 -6 -6 -5 -4 -3 -2 -1 -0 0 1 2 4 7 9
-2 -2 -2 -2 -2 -2 -3 -3 -3 -2 -3 -3 -3 -3 -3 -3 -3 -4 -4 -5 -5 -5 -6 -6 -7 -7 -7 -7 -7 -8 -8 -7 -7 -7 -8 -8 -8 -8 -9 -9 -9 -10 -10 -11 -11 -11 -12 -13 -13 -12 -12 -12 -12 -13 -14 -14 -16 -17 -18 -17 -17 -17 -16 -15 -15 -14 -13 -12 -11 -10 -10 -10 -10 -9 -8 -7 -6 -5 -4 -5 -6 -7 -9 -9 -9 -9 -7 -6 -6 -6 -6 -5 -4 -3 -2 -1 -1 0 1 3 4 7 10
-2 -2 -3 -3 -3 -3 -3 -3 -3 -3 -3 -3 -3 -3 -2 -3 -4 -4 -3 -5 -5 -5 -5 -5 -6 -7 -7 -7 -7 -7 -7 -7 -6 -6 -7 -8 -9 -9 -10 -10 -10 -10 -10 -11 -11 -10 -10 -12 -13 -13 -13 -13 -13 -13 -15 -15 -15 -16 -17 -17 -17 -17 -16 -16 -15 -14 -12 -11 -10 -9 -10 -10 -11 -10 -9 -8 -6 -5 -4 -4 -4 -5 -7 -8 -9 -9 -8 -7 -6 -5 -6 -6 -5 -3 -2 -1 -1 0 1 2 3 4 6
-2 -2 -3 -3 -3 -3 -3 -3 -3 -3 -3 -3 -4 -4 -3 -3 -4 -5 -4 -4 -5 -5 -4 -4 -6 -7 -7 -7 -7 -8 -7 -6 -6 -6 -6 -6 -8 -9 -9 -10 -10 -10 -10 -10 -10 -10 -10 -10 -11 -12 -13 -14 -14 -14 -15 -16 -16 -16 -16 -16 -16 -16 -16 -15 -15 -14 -13 -12 -10 -9 -9 -10 -10 -11 -10 -9 -7 -6 -5 -4 -3 -4 -4 -6 -8 -9 -9 -8 -6 -5 -5 -5 -5 -4 -2 -2 -1 0 1 2 3 3 3
-3 -2 -2 -3 -3 -3 -3 -3 -3 -3 -4 -4 -4 -4 -4 -3 -4 -5 -5 -5 -6 -7 -5 -3 -4 -7 -9 -8 -7 -8 -10 -7 -6 -7 -8 -6 -7 -8 -9 -9 -9 -10 -10 -10 -10 -10 -10 -10 -10 -11 -13 -13 -13 -13 -14 -16 -16 -16 -15 -16 -16 -15 -15 -15 -15 -14 -14 -13 -11 -10 -9 -9 -10 -11 -11 -9 -8 -7 -6 -4 -3 -3 -3 -4 -6 -7 -9 -8 -6 -5 -4 -5 -5 -4 -3 -2 -1 1 2 2 3 3 3
-3 -3 -2 -3 -3 -3 -3 -3 -4 -4 -4 -4 -5 -5 -5 -4 -4 -4 -5 -6 -7 -8 -8 -5 -3 -3 -7 -9 -7 -7 -9 -8 -7 -6 -8 -8 -7 -7 -9 -9 -10 -9 -9 -9 -9 -10 -10 -10 -10 -11 -12 -13 -14 -13 -13 -15 -16 -17 -16 -16 -15 -14 -14 -14 -14 -14 -14 -13 -12 -11 -9 -9 -10 -10 -11 -10 -9 -8 -7 -5 -4 -3 -2 -2 -4 -6 -8 -8 -7 -6 -4 -4 -4 -4 -4 -3 -1 1 2 1 1 1 1
-3 -3 -3 -3 -3 -3 -3 -3 -4 -4 -4 -5 -5 -5 -5 -5 -5 -4 -4 -5 -6 -8 -9 -8 -6 -4 -3 -6 -7 -6 -7 -8 -7 -6 -6 -8 -8 -8 -7 -8 -9 -10 -10 -9 -8 -8 -7 -8 -9 -10 -10 -12 -14 -16 -16 -15 -16 -16 -17 -16 -15 -14 -13 -13 -13 -13 -13 -13 -12 -11 -10 -9 -9 -10 -10 -10 -10 -9 -8 -7 -5 -4 -2 -1 -2 -4 -7 -8 -7 -6 -5 -4 -4 -4 -5 -3 -1 0 1 -1 -1 -1 -1
-3 -3 -3 -3 -3 -4 -3 -3 -4 -4 -4 -5 -5 -5 -5 -6 -5 -5 -4 -4 -5 -7 -9 -9 -8 -7 -6 -6 -6 -6 -6 -8 -8 -8 -6 -6 -7 -8 -9 -8 -7 -8 -8 -8 -8 -8 -7 -6 -7 -9 -10 -10 -12 -15 -18 -17 -16 -16 -16 -16 -15 -14 -13 -12 -12 -12 -12 -12 -12 -11 -10 -10 -10 -9 -10 -10 -10 -9 -8 -8 -7 -5 -3 -1 -1 -2 -5 -7 -7 -6 -5 -3 -3 -3 -4 -3 -2 -0 1 -1 -1 0 0
-3 -3 -3 -3 -3 -4 -4 -4 -4 -4 -4 -5 -5 -6 -6 -6 -6 -6 -5 -4 -4 -4 -8 -9 -8 -7 -7 -7 -8 -8 -7 -7 -8 -9 -8 -8 -7 -6 -7 -8 -9 -8 -7 -5 -6 -8 -9 -7 -7 -8 -11 -10 -10 -12 -16 -17 -17 -17 -16 -15 -14 -13 -12 -11 -11 -11 -11 -11 -11 -11 -10 -10 -10 -10 -10 -9 -9 -9 -8 -8 -7 -6 -4 -2 -0 -1 -3 -6 -7 -7 -5 -4 -3 -3 -3 -3 -3 -1 0 -1 0 1 2
-4 -4 -4 -4 -4 -4 -4 -4 -4 -4 -5 -5 -5 -6 -6 -6 -6 -6 -6 -6 -4 -3 -4 -8 -9 -8 -7 -6 -7 -9 -9 -7 -7 -7 -7 -8 -8 -8 -7 -4 -4 -7 -11 -8 -6 -5 -7 -7 -5 -5 -8 -9 -9 -10 -12 -13 -15 -15 -16 -14 -12 -11 -11 -10 -10 -10 -11 -10 -10 -10 -11 -11 -11 -11 -10 -10 -9 -8 -8 -7 -7 -7 -5 -2 -0 0 -1 -4 -6 -7 -6 -4 -3 -3 -2 -3 -3 -2 -1 0 1 2 3
-5 -5 -5 -5 -5 -4 -4 -4 -4 -4 -5 -5 -5 -6 -6 -6 -6 -6 -7 -7 -6 -5 -3 -5 -7 -9 -9 -8 -7 -8 -10 -9 -8 -8 -8 -5 -5 -7 -12 -10 -5 -1 -3 -10 -10 -8 -5 -7 -6 -4 -3 -6 -7 -7 -9 -12 -13 -13 -14 -14 -11 -10 -10 -10 -9 -9 -10 -10 -10 -10 -11 -11 -11 -11 -11 -11 -10 -9 -8 -7 -6 -6 -5 -3 -1 1 1 -2 -5 -6 -6 -5 -3 -3 -2 -2 -3 -3 -2 1 2 1 1
-5 -5 -5 -5 -5 -5 -5 -4 -4 -4 -5 -5 -6 -6 -7 -7 -7 -6 -6 -7 -7 -7 -6 -5 -6 -7 -9 -10 -10 -9 -9 -10 -10 -9 -11 -12 -7 -2 -1 -10 -12 -8 1 -2 -6 -9 -6 -7 -7 -6 -1 -4 -5 -5 -6 -10 -12 -12 -12 -13 -12 -10 -9 -10 -10 -9 -9 -10 -10 -10 -10 -11 -11 -11 -11 -11 -11 -10 -9 -8 -7 -5 -5 -3 -1 1 2 -1 -3 -5 -6 -5 -4 -3 -2 -2 -2 -2 -2 1 1 -0 -1
-5 -5 -5 -5 -5 -5 -5 -5 -4 -4 -5 -5 -5 -6 -6 -7 -7 -6 -6 -5 -5 -6 -6 -5 -5 -6 -7 -8 -10 -11 -10 -10 -10 -8 -5 -10 -13 -11 1 5 -1 -8 -6 -1 -3 -7 -7 -4 -5 -6 -1 -3 -5 -6 -3 -6 -8 -10 -9 -11 -12 -12 -10 -11 -11 -10 -8 -9 -9 -10 -10 -10 -10 -11 -11 -11 -11 -10 -10 -9 -7 -6 -5 -3 -1 0 2 1 -1 -4 -6 -5 -4 -3 -2 -2 -2 -2 -1 3 2 -0 -2
-5 -6 -6 -5 -5 -5 -5 -5 -5 -4 -4 -5 -5 -6 -6 -6 -6 -6 -6 -5 -4 -4 -5 -5 -3 -3 -6 -8 -9 -10 -11 -11 -11 -11 -10 -3 -6 -14 -20 -4 4 3 -4 -1 -1 -4 -10 -3 -2 -4 -6 -1 -2 -6 -6 -5 -7 -9 -9 -9 -11 -12 -12 -11 -11 -10 -8 -8 -8 -8 -9 -10 -10 -10 -10 -10 -10 -10 -9 -9 -8 -7 -6 -4 -2 -0 1 1 -0 -3 -5 -5 -4 -3 -2 -2 -2 -1 1 4 3 1 1
-4 -5 -6 -6 -5 -5 -5 -5 -5 -5 -5 -5 -5 -5 -6 -6 -6 -6 -7 -7 -6 -5 -5 -7 -6 -2 1 -5 -9 -10 -11 -13 -10 -9 -17 -14 -6 -3 -16 -18 -9 2 5 2 3 2 -9 -9 -3 1 -9 -5 -1 -1 -6 -7 -9 -11 -12 -10 -10 -11 -12 -11 -10 -9 -7 -7 -7 -7 -7 -8 -8 -9 -9 -9 -9 -9 -8 -8 -8 -8 -7 -6 -3 -1 1 1 0 -1 -4 -5 -4 -3 -3 -2 -2 0 4 3 2 1 2
-3 -3 -4 -5 -5 -5 -5 -5 -5 -5 -5 -5 -5 -5 -5 -6 -6 -6 -5 -6 -7 -6 -4 -7 -10 -9 -1 -0 -4 -8 -7 -13 -12 -8 -6 -18 -16 -5 6 -5 -10 -6 11 6 7 10 10 -8 -6 3 5 -6 -6 -2 -1 -2 -4 -7 -11 -10 -10 -10 -10 -10 -10 -10 -9 -7 -7 -6 -6 -7 -7 -7 -7 -7 -7 -7 -7 -7 -7 -7 -8 -7 -5 -3 -0 1 0 -1 -2 -4 -4 -4 -3 -2 -1 1 4 0 -1 -1 -1
-3 -3 -3 -3 -4 -4 -5 -5 -5 -5 -4 -5 -6 -6 -6 -5 -5 -6 -5 -5 -6 -6 -5 -3 -6 -10 -12 -4 -4 -6 -7 -9 -12 -12 -2 -8 -17 -20 -8 5 -4 -16 -13 -7 -8 -4 16 10 -1 -5 7 3 -2 -7 -9 -6 -2 -2 -6 -8 -8 -9 -10 -11 -11 -11 -11 -10 -8 -7 -6 -6 -6 -6 -6 -6 -6 -6 -6 -6 -7 -7 -7 -7 -6 -4 -2 -1 -1 -2 -2 -2 -3 -3 -2 -2 -0 2 4 1 -1 -1 -2
-2 -3 -3 -3 -3 -4 -4 -4 -5 -4 -4 -3 -4 -5 -6 -6 -5 -6 -6 -6 -6 -7 -7 -5 -3 -4 -11 -9 -7 -8 -13 -10 -11 -12 -10 -3 -9 -22 -38 -16 -5 -3 -11 -6 -13 -22 -17 5 9 2 -8 -2 2 1 -9 -15 -11 -5 -3 -6 -7 -7 -8 -10 -11 -11 -13 -13 -11 -9 -8 -7 -6 -5 -5 -5 -5 -5 -5 -5 -6 -6 -7 -7 -6 -4 -2 -2 -2 -3 -2 -1 -1 -2 -2 -1 1 4 7 8 5 2 1
-2 -2 -2 -3 -3 -3 -4 -4 -4 -4 -4 -3 -3 -3 -5 -5 -6 -6 -7 -7 -8 -8 -8 -9 -7 -4 -5 -9 -8 -6 -9 -12 -13 -13 -17 -10 -1 -1 -22 -30 -21 -6 4 13 13 4 -16 -13 -0 12 15 -1 -3 3 12 -7 -13 -11 -2 -4 -6 -7 -6 -7 -9 -11 -11 -13 -13 -13 -12 -10 -8 -6 -5 -5 -5 -4 -4 -5 -5 -5 -6 -6 -6 -4 -2 -2 -3 -3 -2 -0 0 -1 -2 -1 1 4 9 11 10 8 5
-2 -2 -2 -2 -3 -3 -3 -4 -4 -4 -4 -3 -3 -3 -4 -4 -5 -5 -6 -6 -6 -7 -7 -9 -9 -7 -2 -6 -8 -7 -4 -9 -10 -10 -14 -21 -12 2 9 -8 -23 -33 -38 -32 -18 -5 2 -3 -10 -7 19 18 2 -8 9 10 -2 -13 -10 -6 -6 -8 -8 -7 -8 -9 -10 -11 -12 -13 -13 -13 -11 -9 -6 -6 -5 -4 -4 -4 -4 -5 -5 -6 -5 -4 -2 -3 -4 -4 -2 0 1 -0 -2 -2 1 4 7 6 5 4 5
-2 -2 -3 -3 -3 -3 -4 -4 -4 -4 -4 -3 -3 -3 -3 -3 -4 -4 -5 -5 -6 -6 -6 -8 -9 -9 -5 -2 -4 -7 -7 -9 -9 -7 -2 -14 -22 -20 -4 2 -2 -12 -23 -35 -39 -36 -27 -7 -4 -10 -14 12 10 -5 -18 4 8 1 -11 -12 -10 -9 -8 -7 -7 -7 -9 -9 -10 -10 -12 -12 -12 -11 -9 -7 -6 -5 -4 -3 -4 -4 -5 -5 -5 -4 -2 -3 -4 -5 -3 -0 1 0 -2 -1 1 4 4 2 1 1 1
-2 -2 -3 -3 -3 -3 -3 -4 -4 -4 -4 -3 -3 -2 -3 -3 -4 -5 -6 -7 -7 -7 -7 -6 -7 -9 -9 -4 -2 -2 -5 -8 -12 -14 -6 -2 -8 -18 -23 -11 -1 6 8 4 -4 -15 -30 -28 -14 -2 -6 3 16 18 -9 -15 -5 7 7 -2 -7 -9 -8 -7 -6 -5 -7 -8 -8 -8 -9 -10 -12 -12 -11 -9 -7 -6 -4 -3 -3 -4 -4 -5 -5 -4 -2 -3 -4 -5 -4 -1 0 1 -1 -1 1 2 1 -0 -1 -1 -2
-2 -2 -2 -3 -3 -3 -3 -3 -4 -4 -4 -3 -3 -2 -3 -3 -4 -4 -5 -6 -7 -8 -7 -6 -6 -7 -10 -8 -5 -3 -4 -3 -7 -11 -16 -9 -3 -2 -11 -16 -14 -9 -8 -6 -3 -2 -7 -22 -28 -25 -10 -5 7 20 29 4 -8 -8 1 4 3 -2 -6 -7 -6 -5 -4 -6 -7 -7 -7 -8 -9 -10 -11 -10 -8 -7 -5 -3 -3 -3 -4 -4 -4 -3 -2 -3 -4 -5 -4 -2 -0 0 -0 -0 0 1 -0 -2 -1 -0 1
-2 -2 -2 -2 -2 -3 -3 -3 -3 -4 -3 -3 -2 -2 -3 -4 -4 -4 -4 -4 -5 -6 -7 -7 -7 -7 -7 -8 -7 -6 -6 -7 -5 -4 -5 -12 -13 -8 -1 -9 -14 -15 -12 -16 -16 -13 -9 -9 -16 -26 -32 -23 -14 -3 12 18 10 -4 -12 -10 -4 2 2 -3 -6 -7 -5 -4 -5 -7 -8 -7 -7 -7 -8 -8 -8 -7 -6 -4 -3 -3 -3 -4 -4 -3 -2 -3 -3 -4 -4 -2 -1 -0 -0 -1 -0 0 0 0 1 3 5
-2 -2 -3 -3 -3 -3 -3 -3 -4 -4 -3 -3 -2 -2 -2 -3 -4 -4 -4 -5 -6 -6 -5 -6 -6 -6 -6 -6 -6 -5 -4 -7 -9 -8 -1 -3 -9 -12 -6 -3 -6 -10 -11 -10 -11 -12 -12 -10 -7 -9 -19 -25 -21 -12 -4 2 7 8 4 -6 -10 -9 -2 -2 -4 -7 -7 -5 -5 -6 -8 -8 -7 -6 -6 -6 -6 -6 -5 -4 -3 -3 -3 -3 -4 -3 -2 -2 -3 -3 -3 -2 -1 -1 -1 -1 -1 -0 1 3 5 7 8
-2 -2 -2 -3 -3 -3 -3 -3 -4 -4 -3 -2 -2 -2 -2 -2 -3 -4 -5 -6 -7 -8 -6 -5 -6 -7 -7 -7 -6 -6 -5 -3 -6 -9 -8 -3 -3 -7 -9 -6 -3 -4 -8 -11 -12 -13 -13 -16 -16 -13 -7 -15 -21 -20 -6 3 2 1 6 9 4 -3 -7 -6 -5 -5 -6 -6 -5 -6 -8 -9 -8 -7 -6 -5 -5 -5 -4 -4 -3 -2 -3 -3 -4 -3 -2 -2 -2 -2 -2 -2 -2 -1 -1 -2 -2 -1 2 5 7 9 10
Height
5844 5843 5843 5843 5842 5842 5841 5841 5840 5840 5839 5839 5839 5838 5838 5837 5837 5836 5836 5835 5835 5834 5834 5834 5833 5833 5833 5832 5832 5831 5831 5830 5830 5829 5829 5829 5828 5828 5828 5828 5827 5827 5827 5827 5827 5827 5827 5827 5827 5827 5827 5827 5827 5827 5827 5827 5827 5826 5826 5826 5826 5825 5825 5825 5824 5824 5824 5823 5823 5823 5823 5823 5824 5825 5826 5828 5829 5830 5831 5831 5830 5830 5830 5831 5832 5832 5833 5834 5835 5836 5836 5837 5838 5839 5840 5841 5843 5844 5845 5846 5847 5847 5848
5842 5842 5841 5841 5840 5840 5839 5839 5838 5838 5838 5837 5837 5836 5836 5835 5835 5834 5834 5833 5833 5832 5832 5831 5831 5831 5830 5830 5829 5829 5828 5828 5827 5827 5827 5826 5826 5826 5825 5825 5824 5824 5824 5824 5824 5823 5823 5823 5823 5823 5823 5823 5823 5823 5823 5823 5823 5823 5823 5823 5823 5822 5822 5822 5822 5822 5821 5821 5820 5820 5820 5820 5820 5821 5821 5822 5823 5825 5826 5827 5827 5827 5827 5827 5828 5828 5829 5830 5831 5832 5833 5833 5834 5835 5836 5837 5838 5840 5841 5842 5843 5844 5845
5840 5840 5839 5839 5838 5838 5838 5837 5837 5836 5836 5835 5835 5834 5834 5833 5833 5832 5832 5831 5831 5830 5830 5829 5828 5828 5828 5827 5827 5826 5826 5825 5825 5824 5824 5823 5823 5823 5823 5822 5822 5822 5821 5821 5821 5821 5820 5820 5820 5819 5819 5819 5819 5819 5819 5819 5819 5819 5819 5819 5819 5818 5818 5818 5818 5818 5818 5818 5818 5817 5817 5817 5817 5817 5818 5818 5818 5819 5821 5822 5823 5823 5824 5824 5824 5824 5825 5826 5827 5828 5828 5829 5830 5831 5832 5833 5834 5835 5837 5838 5839 5840 5841
5839 5838 5838 5837 5837 5836 5836 5835 5835 5834 5834 5833 5833 5832 5832 5831 5831 5830 5830 5829 5828 5828 5827 5827 5826 5826 5825 5825 5824 5824 5823 5823 5822 5822 5821 5821 5821 5820 5820 5820 5819 5819 5819 5818 5818 5818 5818 5817 5817 5817 5816 5816 5816 5815 5815 5815 5815 5815 5815 5815 5815 5814 5815 5814 5814 5815 5815 5815 5814 5814 5814 5814 5814 5814 5814 5814 5814 5815 5815 5816 5818 5819 5820 5820 5820 5820 5821 5821 5822 5823 5824 5825 5826 5827 5828 5829 5830 5831 5832 5833 5834 5836 5837
5837 5837 5836 5835 5835 5834 5834 5833 5833 5833 5832 5832 5831 5830 5830 5829 5829 5828 5828 5827 5826 5826 5825 5824 5824 5823 5823 5822 5822 5821 5821 5820 5820 5819 5819 5818 5818 5818 5817 5817 5817 5816 5816 5816 5816 5815 5815 5815 5814 5814 5814 5813 5813 5813 5812 5812 5812 5812 5812 5811 5811 5811 5811 5811 5810 5810 5810 5810 5810 5810 5810 5810 5810 5811 5811 5811 5811 5811 5811 5811 5812 5813 5814 5816 5816 5817 5817 5817 5818 5819 5820 5820 5821 5823 5823 5825 5825 5826 5827 5829 5830 5831 5833
5835 5835 5834 5834 5833 5833 5832 5831 5831 5830 5830 5829 5829 5828 5828 5827 5827 5826 5825 5825 5824 5823 5823 5822 5821 5821 5820 5820 5819 5819 5818 5818 5817 5817 5816 5816 5815 5815 5815 5814 5814 5813 5813 5813 5813 5813 5812 5812 5812 5811 5811 5811 5810 5810 5810 5809 5809 5809 5809 5808 5808 5808 5808 5807 5807 5807 5806 5806 5806 5806 5806 5806 5806 5807 5807 5807 5807 5807 5807 5807 5808 5808 5809 5810 5812 5813 5813 5813 5813 5814 5815 5816 5817 5818 5819 5820 5821 5822 5823 5824 5825 5827 5828
5833 5833 5832 5832 5831 5831 5830 5829 5829 5828 5828 5827 5827 5826 5826 5825 5824 5824 5823 5822 5822 5821 5820 5819 5819 5818 5818 5817 5817 5816 5815 5815 5814 5814 5813 5813 5813 5812 5812 5811 5811 5810 5810 5810 5810 5809 5809 5808 5808 5808 5808 5807 5807 5807 5806 5806 5806 5806 5806 5805 5805 5805 5805 5804 5804 5803 5803 5803 5802 5802 5802 5802 5802 5802 5802 5803 5803 5803 5803 5803 5803 5803 5804 5805 5806 5807 5808 5809 5809 5809 5810 5811 5812 5813 5814 5815 5816 5817 5818 5819 5820 5822 5824
5832 5831 5831 5830 5829 5829 5828 5828 5827 5826 5826 5825 5824 5824 5823 5823 5822 5821 5821 5820 5819 5818 5818 5817 5816 5815 5815 5814 5813 5813 5813 5812 5812 5811 5810 5810 5809 5809 5808 5808 5807 5807 5806 5806 5806 5806 5805 5805 5804 5804 5803 5803 5803 5803 5802 5802 5802 5802 5801 5801 5802 5801 5801 5800 5800 5800 5799 5799 5799 5798 5798 5798 5798 5798 5798 5798 5798 5798 5798 5798 5798 5799 5799 5800 5800 5801 5803 5803 5804 5804 5805 5805 5807 5808 5809 5810 5811 5812 5813 5814 5816 5817 5819
5830 5829 5829 5828 5828 5827 5826 5825 5825 5824 5823 5823 5822 5822 5821 5820 5819 5819 5818 5817 5817 5816 5815 5814 5813 5813 5812 5811 5811 5810 5809 5809 5808 5808 5807 5806 5806 5805 5805 5804 5803 5803 5802 5802 5801 5801 5801 5800 5800 5799 5799 5799 5798 5798 5798 5797 5797 5796 5796 5796 5796 5796 5796 5796 5796 5795 5795 5795 5794 5794 5794 5794 5794 5794 5793 5793 5793 5793 5794 5794 5794 5794 5794 5795 5795 5796 5797 5798 5798 5799 5800 5800 5801 5802 5803 5805 5806 5807 5808 5810 5811 5812 5813
5828 5828 5827 5826 5826 5825 5824 5823 5823 5822 5821 5820 5820 5819 5818 5818 5817 5816 5815 5815 5814 5813 5812 5811 5810 5809 5809 5808 5807 5807 5806 5805 5804 5804 5803 5803 5802 5801 5801 5800 5799 5799 5798 5797 5797 5796 5796 5795 5795 5795 5794 5794 5793 5793 5792 5792 5791 5791 5791 5791 5791 5791 5790 5790 5790 5790 5790 5790 5789 5790 5790 5789 5789 5789 5789 5789 5789 5789 5790 5790 5789 5789 5789 5789 5790 5790 5791 5791 5793 5794 5795 5795 5795 5796 5797 5799 5800 5802 5803 5805 5806 5807 5808
5826 5825 5825 5824 5823 5823 5822 5821 5820 5820 5819 5818 5817 5816 5816 5815 5814 5813 5813 5812 5811 5810 5809 5808 5808 5807 5806 5805 5804 5803 5802 5802 5801 5800 5799 5798 5798 5797 5797 5796 5795 5794 5794 5793 5792 5792 5791 5790 5790 5789 5789 5788 5788 5788 5787 5786 5786 5785 5785 5785 5785 5785 5784 5784 5784 5784 5784 5783 5783 5784 5784 5784 5784 5784 5784 5784 5784 5785 5785 5785 5785 5785 5784 5784 5784 5784 5785 5785 5786 5787 5788 5789 5790 5790 5791 5792 5794 5796 5798 5799 5800 5802 5803
5824 5823 5823 5822 5821 5821 5820 5819 5818 5817 5817 5816 5815 5814 5813 5812 5811 5811 5810 5809 5808 5808 5807 5805 5804 5803 5803 5802 5801 5800 5799 5798 5797 5796 5795 5794 5793 5793 5792 5791 5791 5790 5789 5788 5788 5787 5786 5785 5784 5784 5783 5783 5783 5782 5781 5781 5780 5780 5779 5779 5779 5778 5778 5778 5778 5778 5777 5777 5777 5777 5777 5777 5778 5778 5778 5778 5778 5779 5779 5780 5780 5780 5780 5780 5779 5779 5779 5779 5780 5781 5782 5783 5784 5785 5785 5786 5787 5789 5791 5793 5794 5796 5798
5822 5821 5820 5820 5819 5818 5818 5817 5816 5815 5814 5813 5812 5811 5810 5810 5809 5808 5807 5806 5805 5804 5803 5803 5802 5800 5799 5798 5797 5796 5795 5794 5793 5792 5791 5790 5789 5788 5788 5787 5786 5785 5784 5783 5783 5782 5781 5780 5779 5778 5778 5778 5777 5776 5776 5775 5774 5774 5773 5773 5773 5772 5772 5771 5771 5771 5770 5770 5770 5770 5770 5770 5770 5770 5770 5771 5771 5772 5773 5773 5773 5774 5774 5775 5775 5774 5774 5774 5774 5774 5775 5776 5777 5778 5780 5780 5781 5782 5784 5786 5788 5790 5791
5820 5819 5818 5818 5817 5816 5815 5814 5813 5813 5812 5811 5810 5809 5808 5807 5806 5805 5804 5803 5802 5801 5800 5799 5798 5797 5796 5795 5794 5793 5792 5790 5789 5788 5787 5786 5785 5784 5783 5782 5781 5780 5780 5779 5778 5777 5776 5775 5774 5773 5773 5772 5771 5771 5770 5769 5768 5768 5767 5767 5766 5765 5765 5764 5764 5763 5763 5763 5762 5762 5762 5762 5762 5762 5762 5762 5763 5763 5764 5765 5765 5766 5767 5768 5768 5769 5769 5769 5768 5768 5768 5769 5770 5772 5773 5774 5775 5775 5777 5779 5781 5783 5785
5818 5817 5816 5815 5814 5813 5813 5812 5811 5810 5809 5808 5807 5806 5805 5804 5803 5802 5801 5800 5799 5798 5797 5796 5795 5794 5793 5792 5790 5789 5788 5787 5785 5784 5783 5782 5781 5780 5779 5778 5777 5776 5775 5774 5773 5772 5771 5770 5769 5768 5767 5766 5766 5765 5764 5763 5762 5762 5761 5761 5760 5759 5758 5757 5757 5756 5756 5755 5755 5754 5754 5753 5753 5753 5753 5753 5754 5754 5755 5755 5756 5757 5758 5759 5760 5761 5762 5763 5763 5763 5763 5763 5763 5764 5766 5767 5768 5769 5770 5771 5773 5776 5778
5816 5815 5814 5813 5812 5811 5810 5809 5808 5808 5807 5806 5805 5804 5803 5802 5801 5799 5798 5797 5796 5795 5794 5793 5792 5791 5789 5788 5787 5786 5784 5783 5782 5780 5779 5778 5777 5775 5774 5773 5772 5771 5770 5769 5768 5767 5766 5765 5763 5763 5762 5760 5759 5758 5758 5757 5756 5755 5755 5754 5753 5752 5751 5750 5749 5749 5748 5747 5747 5746 5745 5745 5744 5744 5744 5744 5744 5744 5745 5745 5746 5747 5748 5749 5750 5752 5753 5755 5756 5757 5757 5757 5757 5757 5758 5759 5761 5763 5763 5764 5766 5768 5771
5814 5813 5812 5811 5810 5809 5808 5807 5806 5805 5804 5803 5802 5801 5800 5799 5798 5797 5796 5794 5793 5792 5791 5789 5788 5787 5786 5784 5783 5782 5780 5779 5778 5777 5775 5774 5773 5771 5770 5769 5768 5766 5765 5764 5763 5761 5760 5759 5758 5757 5755 5754 5753 5752 5751 5750 5749 5748 5748 5747 5746 5745 5744 5743 5743 5741 5740 5740 5739 5738 5737 5736 5735 5735 5734 5734 5734 5734 5734 5734 5735 5736 5737 5738 5739 5741 5743 5744 5746 5748 5749 5750 5750 5750 5750 5751 5753 5755 5757 5758 5759 5761 5763
5812 5811 5810 5809 5808 5807 5806 5805 5804 5803 5802 5801 5800 5798 5798 5796 5795 5794 5793 5791 5790 5789 5787 5786 5785 5783 5782 5781 5779 5778 5776 5775 5774 5772 5771 5770 5768 5767 5766 5764 5763 5761 5759 5758 5757 5755 5754 5753 5751 5750 5749 5747 5746 5745 5744 5743 5742 5741 5740 5739 5738 5737 5737 5736 5735 5733 5733 5732 5731 5730 5728 5727 5726 5725 5725 5724 5724 5724 5723 5723 5724 5724 5725 5726 5728 5729 5731 5733 5735 5737 5739 5741 5743 5743 5743 5743 5745 5746 5748 5751 5752 5753 5755
5810 5809 5808 5807 5806 5804 5803 5803 5801 5800 5799 5798 5797 5796 5794 5793 5792 5791 5789 5788 5787 5785 5784 5783 5781 5780 5778 5777 5775 5774 5772 5771 5769 5768 5767 5765 5764 5763 5761 5759 5757 5755 5754 5752 5751 5749 5748 5746 5745 5743 5742 5740 5739 5738 5736 5735 5734 5733 5732 5730 5730 5729 5728 5727 5726 5725 5724 5723 5723 5721 5720 5719 5718 5716 5716 5715 5714 5713 5713 5712 5713 5713 5713 5714 5715 5716 5718 5720 5722 5725 5728 5730 5732 5734 5735 5736 5737 5738 5740 5742 5744 5746 5748
5808 5807 5805 5804 5803 5802 5801 5800 5799 5798 5796 5795 5794 5793 5792 5790 5789 5788 5786 5785 5783 5782 5780 5779 5778 5776 5774 5773 5771 5769 5768 5767 5765 5763 5762 5760 5759 5757 5756 5754 5752 5750 5748 5746 5744 5743 5741 5739 5738 5736 5735 5733 5732 5730 5729 5727 5726 5725 5723 5722 5721 5720 5719 5718 5717 5716 5715 5714 5713 5712 5711 5709 5708 5707 5706 5705 5703 5702 5701 5701 5700 5701 5701 5701 5702 5703 5704 5706 5708 5711 5714 5717 5720 5723 5726 5728 5729 5730 5732 5734 5736 5738 5740
5805 5804 5803 5802 5801 5800 5798 5797 5796 5795 5793 5792 5791 5789 5788 5787 5785 5784 5783 5781 5780 5778 5777 5775 5773 5772 5770 5768 5767 5765 5764 5762 5760 5758 5757 5755 5753 5752 5750 5748 5747 5744 5743 5740 5738 5737 5734 5733 5731 5729 5728 5726 5725 5723 5722 5720 5718 5717 5715 5714 5713 5711 5710 5709 5708 5707 5706 5705 5703 5702 5701 5699 5698 5697 5695 5693 5692 5691 5689 5688 5688 5687 5687 5688 5688 5689 5690 5692 5694 5697 5700 5703 5707 5711 5714 5717 5719 5721 5723 5725 5727 5729 5732
5803 5802 5801 5799 5798 5797 5796 5794 5793 5792 5790 5789 5788 5786 5784 5783 5782 5780 5779 5777 5776 5774 5773 5771 5770 5768 5766 5765 5763 5761 5759 5758 5756 5754 5752 5750 5748 5747 5745 5743 5741 5739 5737 5735 5733 5731 5728 5726 5724 5723 5721 5719 5718 5716 5714 5713 5711 5709 5708 5706 5704 5703 5701 5700 5698 5697 5696 5695 5694 5692 5691 5689 5687 5685 5683 5681 5680 5678 5677 5675 5674 5673 5673 5673 5673 5674 5676 5677 5679 5682 5685 5689 5693 5697 5701 5705 5708 5711 5713 5715 5717 5720 5722
5801 5799 5798 5797 5795 5794 5793 5791 5790 5789 5787 5786 5784 5783 5781 5780 5778 5777 5775 5774 5772 5770 5769 5767 5766 5764 5763 5761 5759 5757 5755 5753 5752 5749 5748 5745 5743 5741 5739 5737 5735 5733 5731 5729 5727 5725 5723 5720 5718 5716 5714 5712 5711 5709 5707 5706 5704 5702 5700 5698 5697 5695 5693 5691 5689 5688 5686 5685 5683 5681 5680 5678 5675 5673 5671 5668 5666 5664 5662 5661 5659 5658 5658 5658 5658 5659 5660 5663 5665 5667 5670 5674 5678 5682 5687 5691 5695 5699 5703 5705 5707 5709 5713
5798 5797 5795 5794 5793 5792 5790 5789 5787 5786 5784 5783 5782 5780 5778 5777 5775 5773 5772 5770 5769 5767 5765 5764 5762 5760 5759 5757 5755 5753 5751 5749 5747 5745 5743 5741 5738 5736 5734 5732 5730 5728 5725 5723 5721 5719 5717 5714 5712 5710 5708 5706 5704 5702 5700 5699 5697 5695 5693 5691 5688 5687 5684 5682 5680 5678 5676 5674 5672 5669 5668 5665 5663 5660 5657 5654 5652 5649 5647 5645 5644 5643 5642 5642 5642 5643 5645 5647 5649 5653 5655 5659 5663 5667 5672 5677 5682 5686 5690 5694 5697 5699 5702
5796 5794 5793 5792 5790 5789 5788 5786 5784 5783 5782 5780 5778 5777 5775 5774 5772 5770 5769 5767 5765 5763 5762 5760 5758 5757 5755 5753 5751 5749 5747 5745 5743 5741 5738 5736 5734 5731 5729 5727 5724 5722 5720 5718 5715 5713 5711 5708 5706 5704 5702 5700 5698 5695 5693 5691 5689 5688 5685 5683 5681 5678 5676 5673 5671 5668 5666 5663 5660 5658 5655 5652 5649 5646 5643 5639 5636 5633 5631 5629 5628 5627 5626 5626 5626 5627 5629 5631 5634 5637 5641 5644 5648 5653 5657 5663 5668 5673 5677 5682 5685 5688 5691
5793 5792 5790 5789 5788 5786 5785 5783 5782 5780 5779 5777 5776 5774 5772 5771 5769 5767 5766 5764 5762 5760 5758 5757 5755 5753 5751 5749 5747 5745 5743 5740 5738 5736 5734 5732 5729 5726 5724 5721 5719 5717 5714 5712 5709 5707 5705 5703 5701 5698 5696 5694 5691 5689 5687 5684 5682 5680 5678 5675 5673 5670 5668 5665 5662 5658 5655 5652 5649 5645 5642 5638 5634 5631 5626 5623 5620 5618 5615 5613 5612 5611 5610 5610 5610 5612 5613 5615 5618 5621 5625 5629 5633 5638 5643 5647 5653 5658 5663 5668 5673 5677 5681
5791 5789 5788 5786 5785 5783 5782 5780 5779 5778 5776 5774 5773 5771 5769 5768 5766 5764 5762 5761 5759 5757 5755 5753 5751 5749 5747 5745 5743 5741 5738 5736 5734 5731 5729 5727 5724 5722 5719 5716 5714 5711 5709 5706 5704 5701 5699 5697 5695 5692 5690 5688 5685 5683 5680 5677 5674 5672 5669 5667 5664 5662 5659 5656 5652 5648 5645 5641 5636 5632 5628 5623 5619 5615 5611 5607 5604 5601 5599 5597 5595 5595 5594 5594 5595 5596 5597 5599 5602 5605 5609 5613 5618 5622 5627 5632 5638 5643 5649 5654 5659 5664 5669
5788 5786 5785 5783 5782 5780 5779 5778 5776 5774 5773 5771 5770 5768 5766 5764 5763 5761 5759 5757 5755 5753 5751 5749 5747 5745 5743 5741 5739 5737 5734 5732 5729 5727 5724 5722 5719 5717 5714 5711 5709 5706 5703 5701 5698 5696 5693 5691 5689 5686 5684 5681 5679 5676 5673 5670 5667 5664 5661 5658 5655 5653 5649 5646 5642 5638 5634 5629 5624 5619 5614 5609 5604 5599 5595 5591 5588 5585 5583 5581 5580 5579 5579 5579 5579 5580 5582 5583 5586 5589 5593 5597 5601 5606 5611 5617 5622 5628 5633 5639 5645 5650 5656
5785 5783 5782 5781 5779 5778 5776 5774 5773 5771 5770 5768 5767 5765 5763 5761 5759 5758 5756 5754 5752 5749 5748 5745 5743 5741 5739 5737 5734 5732 5730 5728 5725 5722 5720 5717 5714 5712 5709 5707 5703 5701 5698 5695 5693 5690 5688 5685 5683 5680 5677 5674 5672 5669 5666 5663 5660 5656 5653 5649 5646 5643 5639 5636 5632 5627 5623 5617 5611 5605 5599 5594 5589 5584 5580 5576 5572 5569 5568 5566 5565 5564 5564 5564 5564 5565 5566 5568 5570 5573 5576 5580 5584 5589 5594 5600 5606 5612 5618 5623 5629 5636 5642
5783 5781 5779 5778 5776 5774 5773 5771 5770 5768 5767 5765 5763 5761 5760 5758 5756 5754 5752 5750 5748 5746 5744 5742 5739 5737 5735 5733 5730 5728 5726 5723 5721 5718 5715 5713 5710 5707 5704 5701 5698 5696 5693 5690 5688 5685 5682 5679 5676 5673 5671 5668 5665 5662 5659 5656 5652 5649 5645 5641 5637 5633 5629 5624 5620 5615 5610 5605 5599 5592 5586 5580 5575 5570 5566 5562 5559 5555 5553 5552 5551 5550 5550 5549 5550 5551 5551 5553 5555 5557 5560 5563 5567 5572 5577 5583 5588 5595 5601 5608 5614 5620 5627
5779 5778 5777 5775 5773 5772 5770 5768 5767 5765 5763 5762 5760 5758 5756 5754 5753 5750 5748 5746 5744 5742 5740 5738 5735 5733 5731 5728 5726 5724 5721 5719 5716 5713 5711 5708 5705 5702 5699 5696 5693 5691 5688 5685 5682 5679 5676 5673 5670 5667 5664 5661 5657 5654 5651 5648 5644 5641 5637 5632 5627 5623 5618 5613 5608 5603 5597 5592 5585 5579 5573 5567 5561 5557 5553 5549 5546 5543 5540 5538 5538 5537 5536 5536 5536 5537 5538 5539 5540 5542 5545 5547 5550 5554 5560 5565 5571 5578 5584 5591 5598 5605 5611
5777 5775 5773 5772 5770 5768 5767 5765 5763 5762 5760 5758 5756 5754 5753 5751 5749 5747 5745 5743 5741 5738 5736 5734 5732 5729 5727 5724 5722 5719 5717 5714 5712 5709 5706 5703 5700 5697 5694 5692 5688 5686 5683 5680 5677 5673 5671 5667 5664 5660 5657 5653 5650 5647 5643 5640 5636 5632 5628 5623 5618 5612 5607 5601 5595 5589 5584 5578 5572 5566 5559 5553 5548 5544 5541 5538 5534 5531 5529 5527 5525 5524 5524 5523 5523 5523 5524 5525 5526 5528 5529 5532 5534 5538 5543 5548 5554 5560 5567 5574 5581 5588 5596
5774 5772 5771 5769 5767 5765 5764 5762 5760 5758 5757 5755 5753 5751 5749 5748 5745 5743 5741 5739 5737 5734 5732 5730 5728 5725 5723 5720 5718 5715 5713 5710 5707 5704 5701 5698 5696 5693 5689 5687 5684 5681 5678 5675 5671 5668 5664 5661 5658 5654 5650 5646 5643 5639 5635 5631 5627 5623 5619 5614 5608 5602 5596 5589 5583 5576 5570 5564 5558 5552 5547 5541 5537 5533 5529 5526 5523 5521 5518 5515 5513 5512 5512 5511 5511 5511 5511 5512 5513 5514 5515 5517 5520 5523 5528 5532 5538 5543 5550 5557 5564 5572 5580
5771 5769 5768 5766 5764 5763 5761 5759 5757 5755 5753 5752 5750 5748 5746 5744 5742 5740 5737 5735 5733 5731 5728 5726 5723 5721 5719 5716 5713 5711 5708 5705 5703 5700 5697 5694 5691 5688 5685 5682 5679 5676 5673 5669 5666 5662 5658 5655 5651 5647 5643 5639 5635 5631 5627 5623 5618 5614 5609 5604 5598 5592 5585 5578 5571 5564 5557 5551 5545 5539 5534 5529 5525 5521 5518 5516 5513 5510 5508 5505 5502 5501 5500 5499 5499 5499 5500 5500 5500 5501 5502 5504 5507 5510 5513 5518 5523 5527 5533 5540 5547 5555 5563
5768 5767 5765 5763 5761 5759 5758 5756 5754 5752 5750 5748 5746 5744 5742 5740 5738 5736 5734 5731 5729 5727 5724 5722 5719 5717 5714 5712 5709 5707 5704 5701 5698 5695 5693 5689 5686 5683 5680 5677 5674 5671 5667 5664 5660 5657 5653 5649 5645 5640 5636 5632 5628 5623 5618 5614 5609 5604 5599 5593 5588 5581 5574 5567 5559 5552 5545 5538 5532 5527 5522 5518 5514 5511 5508 5505 5503 5500 5498 5495 5492 5490 5488 5488 5487 5487 5488 5488 5488 5488 5490 5492 5494 5497 5500 5504 5508 5513 5518 5523 5530 5538 5546
5766 5764 5762 5760 5758 5756 5754 5753 5751 5748 5747 5745 5743 5741 5739 5737 5734 5732 5730 5728 5725 5723 5720 5718 5715 5713 5710 5708 5705 5703 5700 5697 5694 5691 5688 5685 5682 5678 5675 5672 5668 5665 5662 5658 5654 5651 5647 5642 5638 5634 5629 5624 5620 5615 5610 5605 5600 5594 5588 5583 5576 5570 5563 5555 5548 5541 5534 5527 5521 5516 5511 5507 5503 5500 5498 5495 5493 5490 5488 5485 5482 5480 5478 5476 5475 5475 5476 5476 5476 5477 5478 5480 5482 5485 5488 5491 5495 5499 5504 5509 5515 5522 5530
5763 5761 5759 5757 5755 5753 5751 5749 5747 5745 5743 5741 5739 5737 5735 5733 5731 5728 5726 5724 5722 5719 5717 5714 5711 5709 5706 5704 5701 5698 5696 5693 5690 5687 5684 5681 5678 5674 5671 5667 5663 5660 5656 5652 5648 5644 5640 5636 5631 5627 5622 5617 5612 5607 5601 5596 5590 5584 5578 5572 5565 5558 5551 5544 5537 5530 5523 5517 5511 5505 5501 5497 5493 5490 5487 5485 5483 5480 5478 5476 5473 5470 5468 5465 5464 5464 5464 5465 5465 5466 5467 5468 5470 5473 5476 5479 5483 5487 5491 5497 5503 5509 5516
5760 5758 5756 5754 5752 5750 5748 5746 5744 5742 5740 5738 5736 5734 5732 5729 5727 5725 5722 5720 5718 5715 5713 5710 5708 5705 5702 5699 5697 5694 5692 5689 5686 5683 5680 5676 5673 5669 5666 5662 5658 5654 5651 5647 5643 5638 5634 5629 5624 5619 5614 5609 5604 5598 5593 5587 5580 5574 5568 5561 5554 5547 5539 5532 5525 5518 5513 5507 5501 5496 5491 5487 5483 5480 5477 5475 5473 5470 5468 5466 5463 5461 5458 5456 5454 5453 5453 5454 5454 5455 5456 5457 5459 5462 5464 5467 5471 5475 5479 5484 5490 5495 5501
5757 5755 5753 5751 5749 5747 5745 5743 5741 5738 5737 5734 5732 5730 5728 5726 5723 5721 5719 5716 5714 5712 5709 5706 5704 5701 5698 5696 5693 5690 5687 5684 5681 5678 5675 5672 5668 5664 5661 5657 5653 5649 5645 5641 5637 5632 5627 5622 5617 5612 5606 5601 5595 5590 5583 5577 5571 5564 5557 5550 5543 5535 5528 5521 5514 5508 5502 5497 5492 5487 5482 5478 5474 5470 5467 5465 5463 5460 5458 5456 5454 5452 5449 5447 5444 5443 5443 5443 5444 5445 5446 5447 5448 5450 5453 5456 5459 5463 5468 5472 5477 5481 5486
5754 5752 5749 5748 5745 5743 5741 5739 5737 5735 5733 5731 5729 5727 5724 5722 5720 5717 5715 5712 5710 5708 5705 5703 5700 5697 5694 5692 5689 5686 5683 5680 5677 5673 5670 5667 5663 5659 5655 5652 5648 5643 5639 5635 5630 5626 5620 5615 5609 5604 5598 5593 5587 5581 5575 5568 5561 5554 5547 5540 5533 5525 5517 5510 5504 5498 5492 5487 5482 5478 5473 5469 5464 5461 5457 5455 5452 5450 5448 5446 5444 5443 5440 5438 5436 5433 5432 5433 5433 5434 5435 5436 5438 5440 5442 5445 5449 5452 5456 5460 5463 5468 5473
5751 5748 5746 5744 5742 5740 5738 5736 5734 5732 5729 5727 5725 5723 5721 5718 5716 5713 5711 5708 5706 5703 5701 5698 5696 5693 5690 5687 5685 5682 5678 5675 5673 5669 5665 5662 5658 5654 5650 5646 5642 5638 5633 5629 5624 5619 5614 5608 5602 5596 5590 5584 5578 5572 5565 5559 5552 5545 5538 5530 5523 5515 5508 5500 5494 5488 5482 5477 5473 5468 5464 5460 5455 5451 5448 5445 5442 5440 5438 5437 5435 5433 5432 5429 5427 5425 5423 5423 5423 5424 5426 5427 5428 5430 5432 5435 5438 5442 5444 5448 5451 5455 5461
5748 5745 5743 5741 5739 5737 5735 5733 5730 5728 5726 5724 5722 5719 5717 5715 5713 5710 5707 5704 5702 5699 5697 5694 5692 5689 5686 5683 5680 5677 5674 5671 5668 5664 5660 5656 5653 5648 5645 5640 5636 5632 5628 5623 5618 5613 5607 5601 5595 5588 5582 5576 5569 5562 5555 5549 5543 5535 5528 5521 5513 5506 5498 5492 5485 5479 5474 5469 5464 5459 5455 5451 5446 5442 5438 5435 5433 5430 5428 5427 5425 5424 5423 5421 5419 5416 5414 5413 5413 5414 5416 5418 5419 5420 5422 5424 5428 5431 5434 5437 5440 5444 5449
5744 5742 5740 5738 5736 5733 5731 5729 5727 5724 5722 5720 5718 5715 5713 5711 5708 5706 5703 5701 5698 5695 5692 5690 5687 5684 5682 5679 5676 5673 5670 5666 5663 5659 5656 5652 5648 5643 5639 5635 5631 5626 5622 5617 5611 5605 5600 5594 5588 5581 5574 5568 5561 5553 5546 5539 5533 5526 5519 5512 5504 5498 5491 5484 5478 5472 5466 5461 5456 5451 5447 5442 5438 5434 5430 5427 5424 5421 5419 5417 5416 5415 5413 5412 5410 5408 5406 5404 5404 5405 5406 5408 5409 5411 5413 5415 5418 5421 5424 5427 5431 5436 5441
5742 5739 5737 5735 5732 5730 5728 5726 5723 5721 5719 5716 5714 5712 5709 5707 5704 5702 5699 5697 5694 5691 5688 5685 5683 5680 5677 5674 5671 5668 5665 5662 5658 5654 5650 5646 5642 5638 5634 5630 5625 5620 5615 5611 5606 5600 5593 5587 5580 5574 5566 5559 5552 5545 5538 5530 5523 5517 5510 5503 5496 5490 5483 5477 5470 5465 5459 5454 5449 5444 5439 5434 5429 5425 5422 5418 5416 5413 5411 5408 5407 5405 5404 5403 5402 5400 5398 5396 5396 5396 5397 5399 5400 5402 5403 5406 5408 5412 5415 5418 5423 5427 5432
5738 5736 5734 5731 5729 5727 5724 5722 5720 5718 5715 5713 5710 5708 5705 5703 5700 5698 5695 5693 5690 5688 5684 5681 5678 5675 5672 5669 5666 5663 5659 5656 5653 5649 5645 5641 5637 5633 5629 5625 5621 5615 5608 5603 5598 5593 5587 5580 5574 5567 5560 5552 5544 5537 5530 5522 5515 5508 5502 5495 5489 5483 5476 5470 5464 5458 5453 5447 5442 5437 5432 5426 5422 5417 5413 5410 5408 5405 5403 5400 5398 5397 5396 5395 5394 5392 5390 5388 5388 5388 5388 5390 5391 5393 5395 5397 5399 5402 5406 5410 5414 5418 5423
5735 5733 5731 5728 5726 5723 5721 5719 5717 5714 5712 5709 5707 5704 5702 5699 5697 5694 5691 5689 5686 5683 5681 5677 5674 5671 5668 5664 5661 5658 5654 5651 5647 5643 5639 5636 5633 5628 5623 5618 5614 5610 5605 5597 5591 5586 5580 5574 5567 5560 5553 5546 5538 5530 5523 5515 5508 5501 5494 5488 5482 5476 5470 5464 5458 5452 5446 5441 5435 5430 5424 5419 5414 5410 5406 5402 5399 5397 5394 5392 5390 5388 5387 5386 5385 5384 5383 5381 5379 5379 5380 5381 5383 5384 5386 5388 5391 5394 5397 5402 5406 5409 5413
5733 5730 5728 5725 5723 5720 5718 5715 5713 5710 5708 5705 5703 5700 5698 5695 5693 5690 5687 5684 5682 5679 5676 5673 5669 5666 5663 5659 5656 5652 5649 5645 5642 5638 5634 5630 5627 5623 5619 5613 5607 5602 5598 5593 5586 5579 5573 5568 5560 5553 5546 5539 5532 5524 5517 5509 5502 5494 5487 5481 5475 5469 5464 5458 5452 5446 5440 5434 5428 5423 5418 5413 5408 5403 5399 5395 5392 5388 5386 5383 5381 5379 5378 5377 5376 5376 5374 5373 5372 5371 5371 5373 5374 5376 5377 5380 5382 5385 5389 5394 5397 5400 5404
5729 5727 5724 5722 5719 5717 5714 5712 5709 5707 5704 5702 5699 5696 5694 5691 5688 5686 5683 5680 5677 5674 5671 5668 5665 5661 5658 5655 5651 5647 5643 5640 5636 5632 5629 5625 5621 5617 5614 5610 5604 5597 5591 5586 5580 5573 5567 5562 5555 5547 5539 5533 5525 5518 5510 5503 5496 5488 5480 5474 5468 5462 5457 5451 5445 5439 5433 5428 5422 5416 5411 5406 5401 5397 5392 5388 5384 5381 5377 5374 5372 5370 5369 5368 5367 5367 5366 5365 5364 5363 5363 5364 5366 5367 5369 5371 5374 5378 5381 5386 5389 5392 5396
5726 5724 5721 5719 5716 5713 5711 5708 5706 5703 5701 5698 5695 5693 5690 5687 5684 5682 5679 5676 5673 5670 5667 5663 5660 5657 5653 5649 5646 5642 5638 5634 5630 5626 5622 5620 5617 5612 5607 5605 5602 5596 5587 5580 5574 5567 5559 5554 5549 5542 5534 5527 5519 5512 5504 5497 5490 5482 5474 5467 5461 5455 5449 5444 5438 5433 5427 5421 5415 5410 5405 5400 5395 5390 5386 5382 5378 5373 5369 5366 5363 5361 5359 5359 5358 5358 5358 5357 5356 5355 5355 5356 5357 5359 5361 5363 5367 5370 5375 5379 5382 5384 5388
5723 5720 5718 5715 5713 5710 5707 5705 5702 5699 5697 5694 5691 5688 5686 5683 5680 5678 5675 5672 5669 5666 5662 5658 5656 5653 5649 5644 5640 5636 5632 5627 5624 5621 5616 5612 5610 5607 5602 5597 5594 5591 5585 5577 5570 5563 5555 5546 5540 5535 5528 5520 5513 5506 5499 5491 5484 5477 5470 5462 5455 5448 5442 5437 5432 5426 5421 5415 5409 5404 5399 5394 5389 5385 5380 5375 5371 5366 5362 5358 5355 5352 5350 5349 5349 5349 5349 5348 5348 5347 5347 5348 5349 5351 5354 5356 5359 5363 5368 5371 5374 5377 5381
5720 5717 5714 5712 5709 5706 5704 5701 5698 5696 5693 5690 5688 5685 5682 5679 5676 5673 5670 5667 5664 5661 5658 5654 5650 5647 5644 5640 5635 5630 5626 5622 5617 5614 5610 5605 5601 5599 5597 5592 5586 5583 5581 5575 5568 5562 5554 5544 5535 5529 5523 5514 5507 5500 5493 5485 5477 5471 5464 5457 5450 5443 5437 5431 5425 5419 5414 5409 5404 5399 5394 5389 5384 5379 5374 5369 5365 5360 5355 5351 5348 5344 5342 5340 5340 5340 5340 5340 5340 5340 5340 5340 5342 5344 5346 5349 5353 5356 5360 5363 5367 5370 5373
5717 5714 5711 5708 5705 5703 5700 5697 5694 5692 5689 5686 5683 5681 5678 5675 5672 5669 5666 5663 5659 5656 5653 5649 5646 5641 5638 5635 5630 5625 5620 5616 5612 5607 5604 5599 5594 5590 5588 5587 5582 5576 5571 5567 5561 5555 5550 5543 5534 5525 5517 5509 5502 5494 5488 5480 5472 5464 5458 5452 5446 5439 5432 5425 5419 5413 5407 5402 5398 5393 5389 5384 5379 5374 5369 5364 5359 5354 5349 5345 5341 5338 5335 5333 5332 5332 5332 5332 5332 5332 5333 5334 5335 5337 5339 5342 5345 5349 5353 5356 5359 5363 5367
5713 5710 5708 5705 5702 5699 5696 5693 5691 5688 5685 5682 5679 5676 5673 5671 5668 5664 5661 5658 5655 5651 5648 5644 5641 5637 5632 5629 5625 5620 5614 5610 5606 5601 5597 5594 5589 5583 5577 5575 5573 5570 5564 5560 5554 5548 5542 5537 5530 5522 5513 5504 5496 5489 5483 5477 5469 5461 5454 5447 5441 5434 5428 5421 5413 5407 5401 5395 5391 5387 5383 5379 5374 5369 5364 5359 5354 5349 5344 5339 5335 5332 5328 5326 5325 5325 5325 5325 5325 5325 5326 5327 5328 5330 5332 5335 5338 5343 5347 5351 5354 5357 5361
5710 5707 5704 5701 5698 5695 5693 5690 5687 5684 5681 5678 5676 5673 5669 5666 5663 5660 5657 5653 5649 5646 5642 5639 5635 5632 5628 5623 5619 5616 5610 5604 5599 5594 5589 5586 5584 5579 5571 5565 5561 5558 5556 5553 5550 5545 5539 5532 5524 5518 5511 5502 5492 5483 5476 5472 5465 5458 5450 5443 5436 5429 5422 5415 5408 5401 5395 5389 5384 5380 5376 5373 5368 5364 5359 5354 5349 5344 5339 5334 5330 5326 5323 5321 5319 5319 5319 5318 5318 5318 5319 5321 5322 5323 5325 5328 5331 5336 5340 5345 5348 5351 5355
5707 5704 5701 5698 5695 5692 5689 5686 5683 5680 5678 5675 5672 5668 5665 5662 5659 5655 5652 5648 5644 5641 5637 5633 5629 5627 5623 5618 5613 5609 5605 5600 5594 5589 5584 5578 5575 5573 5568 5562 5554 5548 5543 5538 5535 5532 5529 5525 5519 5512 5506 5499 5490 5479 5470 5464 5458 5453 5446 5438 5431 5424 5418 5411 5404 5397 5390 5384 5379 5374 5370 5366 5362 5358 5353 5348 5343 5339 5334 5329 5325 5321 5318 5316 5314 5313 5313 5313 5312 5312 5313 5315 5317 5318 5319 5321 5324 5328 5333 5336 5339 5342 5347
5703 5700 5697 5694 5691 5688 5685 5682 5679 5677 5674 5671 5668 5664 5661 5658 5654 5651 5647 5643 5639 5636 5632 5628 5624 5620 5617 5614 5609 5604 5599 5594 5589 5584 5580 5574 5567 5563 5559 5556 5550 5543 5535 5528 5523 5517 5513 5511 5509 5506 5501 5495 5488 5479 5470 5461 5453 5447 5441 5434 5427 5421 5414 5407 5400 5393 5387 5381 5375 5369 5365 5360 5356 5352 5348 5343 5338 5334 5329 5325 5321 5317 5313 5311 5309 5308 5308 5307 5307 5307 5308 5309 5311 5312 5313 5315 5318 5321 5324 5327 5330 5334 5339
5699 5697 5693 5690 5688 5684 5681 5678 5675 5673 5670 5667 5664 5660 5657 5654 5650 5646 5642 5638 5635 5631 5627 5623 5619 5615 5611 5608 5604 5599 5594 5589 5583 5578 5573 5569 5564 5557 5551 5546 5542 5538 5531 5525 5519 5513 5505 5499 5495 5493 5493 5489 5483 5477 5469 5460 5451 5443 5437 5430 5423 5417 5411 5403 5396 5390 5383 5378 5372 5366 5361 5356 5351 5346 5342 5338 5333 5329 5325 5320 5316 5313 5309 5307 5305 5304 5303 5303 5302 5302 5303 5304 5305 5306 5307 5309 5311 5314 5317 5319 5323 5327 5333
5696 5693 5690 5687 5684 5681 5678 5675 5672 5669 5666 5663 5660 5656 5653 5649 5646 5642 5638 5633 5630 5626 5622 5618 5614 5610 5606 5602 5598 5594 5589 5584 5579 5574 5568 5562 5558 5554 5547 5540 5534 5529 5523 5518 5512 5507 5501 5494 5487 5481 5479 5478 5476 5472 5465 5458 5449 5441 5433 5426 5419 5413 5407 5400 5393 5387 5380 5374 5369 5363 5358 5353 5348 5342 5337 5333 5328 5324 5320 5316 5312 5308 5305 5303 5301 5300 5299 5298 5298 5298 5298 5299 5300 5301 5302 5303 5305 5308 5310 5313 5318 5323 5328
5693 5689 5686 5683 5680 5677 5674 5671 5668 5665 5662 5659 5656 5652 5649 5645 5641 5638 5633 5629 5625 5621 5617 5613 5608 5605 5601 5596 5592 5588 5584 5578 5574 5569 5564 5558 5552 5547 5543 5536 5528 5522 5516 5510 5503 5498 5492 5487 5481 5475 5469 5467 5466 5464 5461 5454 5447 5439 5432 5424 5417 5410 5403 5397 5390 5384 5378 5372 5366 5360 5354 5349 5344 5339 5334 5329 5324 5320 5316 5312 5308 5305 5301 5299 5297 5296 5295 5295 5294 5294 5294 5295 5295 5296 5297 5298 5299 5302 5305 5309 5314 5319 5325
5689 5686 5683 5679 5676 5673 5670 5667 5664 5661 5658 5655 5651 5648 5644 5641 5637 5633 5629 5625 5621 5617 5613 5608 5604 5599 5596 5592 5587 5583 5578 5573 5568 5563 5559 5554 5548 5542 5536 5531 5525 5518 5510 5504 5497 5490 5484 5478 5472 5467 5462 5457 5454 5453 5452 5450 5443 5436 5428 5422 5415 5408 5401 5393 5387 5381 5375 5368 5363 5357 5351 5346 5341 5336 5331 5326 5321 5316 5312 5308 5304 5301 5298 5295 5293 5292 5292 5291 5291 5290 5290 5291 5291 5291 5292 5293 5295 5297 5301 5306 5310 5316 5321
5685 5682 5679 5676 5673 5669 5667 5663 5660 5657 5654 5651 5647 5644 5640 5636 5633 5628 5624 5620 5616 5612 5608 5604 5599 5595 5591 5586 5582 5578 5573 5568 5563 5558 5553 5548 5543 5537 5531 5524 5519 5513 5506 5499 5492 5485 5478 5471 5464 5457 5452 5448 5444 5441 5439 5438 5436 5430 5423 5418 5412 5406 5399 5392 5383 5377 5371 5366 5360 5354 5348 5343 5338 5333 5328 5323 5318 5314 5309 5305 5301 5298 5295 5292 5290 5289 5288 5288 5288 5287 5287 5287 5287 5287 5288 5289 5290 5293 5297 5302 5307 5312 5317